Location: St Paul
(33.4390°N, 83.7350°W)
Time: 07:09:43
(UTC-04:00)

ATLAS 3B CENTAUR R/B - Pass Details

Date: 06 October 2017
Orbit: 224 x 5832 km, 28.1° (Epoch: 17 October)

Event Time Altitude Azimuth Distance (km) Brightness Sun altitude
Rises 21:08:52 0° 269° (W) 3,612 6.8 -25.1°
Reaches altitude 10° 21:10:45 10° 264° (W) 3,035 6.0 -25.4°
Maximum altitude 21:18:32 58° 187° (S) 2,319 4.3 -27.0°
Enters shadow 21:26:20 35° 128° (SE) 4,119 5.2 -28.6°
